"Pseudo-MPEC" for C0Y08R2

Created 2019 Sep 19 10:07:03 UT using Find_Orb

Click here for an explanation of pseudo-MPECs

 
 Astrometry: 
     C0Y08R2  C2019 09 05.36088 00 01 16.08 -04 02 57.6    ~959b 20.1 GVNEOCPG96
     C0Y08R2  C2019 09 05.37126 00 01 00.53 -04 02 59.7    ~959b 20.8 GVNEOCPG96
     C0Y08R2  C2019 09 05.37645 00 00 52.86 -04 03 01.4    ~959b 21.1 GVNEOCPG96
     C0Y08R2  C2019 09 05.44490 23 59 12.78 -04 03 20.6    ~95B7 19.7 GVNEOCPV06
     C0Y08R2  C2019 09 05.44618 23 59 10.95 -04 03 20.4    ~95B7 21.2 GVNEOCPV06
     C0Y08R2  C2019 09 05.44745 23 59 09.11 -04 03 21.0    ~95B7 20.9 GVNEOCPV06
     C0Y08R2  C2019 09 05.44873 23 59 07.27 -04 03 21.4    ~95B7 21.4 GVNEOCPV06

Station data:
(G96) Mt. Lemmon Survey  (N32.442754 W110.788720)  US/Arizona.  Observers T.
   A. Pruyne, B. M. Africano, E. J. Christensen, G. A. Farneth, D. C. Fuls,
   A. R. Gibbs, A. D. Grauer, H. Groeller, J. A. Johnson, R. A. Kowalski, S.
   M. Larson, G. J. Leonard, D. Rankin, R. L. Seaman, F. C. Shelly. 1.5-m
   reflector + 10K CCD.
(V06) Catalina Sky Survey-Kuiper  (N32.416847 W110.732550)  US/Arizona.
   Observers T. A. Pruyne, B. M. Africano, E. J. Christensen, G. A. Farneth,
   D. C. Fuls, A. R. Gibbs, A. D. Grauer, H. Groeller, J. A. Johnson, R. A.
   Kowalski, S. M. Larson, G. J. Leonard, D. Rankin, R. L. Seaman, F. C.
   Shelly. 1.55-m reflector + CCD.

Orbital elements:  C0Y08R2
   Perihelion 2020 Feb 16.582576 TT = 13:58:54 (JD 2458896.082576)
Epoch 2019 Sep  5.0 TT = JDT 2458731.5   Earth MOID: 0.0058   AutoNEOCP
M 184.27774657                      (J2000 ecliptic)
n   1.06768442     Peri.  174.05884
a   0.94807081     Node   344.27659
e   0.0723871      Incl.    0.91430
P   0.92/337.17d   H   30.5     G   0.15   q 0.87944265  Q 1.01669897
From 7 observations 2019 Sept. 5 (2.1 hr); mean residual 0".58
Residuals in arcseconds: 
190905 G96  .88+  1.2-    190905 V06  .36+  .17-    190905 V06  .41-  .25-    
190905 G96  .82-  .64+    190905 V06  .31+  .27+    
190905 G96  .22-  .82+    190905 V06  .14-  .09-    

Ephemerides (geocentric):
Date (UTC) HH   RA              Dec         delta   r     elong  mag
---- -- -- --  -------------   -----------  ------ ------ -----  ---
2019 09 19 10  20 37 48.985   -03 25 35.13  .01242 1.0132 133.2 22.8
2019 09 19 11  20 37 28.546   -03 25 22.85  .01244 1.0132 133.1 22.8
2019 09 19 12  20 37 08.184   -03 25 10.58  .01246 1.0132 133.0 22.8
2019 09 19 13  20 36 47.900   -03 24 58.34  .01248 1.0132 132.9 22.8
2019 09 19 14  20 36 27.694   -03 24 46.13  .01250 1.0131 132.7 22.8
2019 09 19 15  20 36 07.565   -03 24 33.94  .01252 1.0131 132.6 22.8
2019 09 19 16  20 35 47.513   -03 24 21.77  .01255 1.0131 132.5 22.8
2019 09 19 17  20 35 27.538   -03 24 09.63  .01257 1.0131 132.4 22.8
2019 09 19 18  20 35 07.639   -03 23 57.51  .01259 1.0131 132.2 22.8
2019 09 19 19  20 34 47.816   -03 23 45.42  .01261 1.0131 132.1 22.8
2019 09 19 20  20 34 28.069   -03 23 33.36  .01263 1.0130 132.0 22.8
2019 09 19 21  20 34 08.398   -03 23 21.32  .01265 1.0130 131.9 22.9
2019 09 19 22  20 33 48.802   -03 23 09.30  .01268 1.0130 131.8 22.9
2019 09 19 23  20 33 29.281   -03 22 57.31  .01270 1.0130 131.6 22.9
2019 09 20 00  20 33 09.835   -03 22 45.35  .01272 1.0130 131.5 22.9
2019 09 20 01  20 32 50.463   -03 22 33.41  .01274 1.0130 131.4 22.9
2019 09 20 02  20 32 31.165   -03 22 21.50  .01276 1.0129 131.3 22.9
2019 09 20 03  20 32 11.941   -03 22 09.62  .01278 1.0129 131.2 22.9
2019 09 20 04  20 31 52.791   -03 21 57.76  .01281 1.0129 131.1 22.9
2019 09 20 05  20 31 33.715   -03 21 45.93  .01283 1.0129 130.9 22.9
2019 09 20 06  20 31 14.711   -03 21 34.12  .01285 1.0129 130.8 22.9
2019 09 20 07  20 30 55.781   -03 21 22.35  .01287 1.0129 130.7 22.9
2019 09 20 08  20 30 36.922   -03 21 10.60  .01289 1.0128 130.6 22.9
2019 09 20 09  20 30 18.137   -03 20 58.87  .01292 1.0128 130.5 22.9
2019 09 20 10  20 29 59.423   -03 20 47.18  .01294 1.0128 130.4 22.9
2019 09 20 11  20 29 40.781   -03 20 35.51  .01296 1.0128 130.2 22.9
2019 09 20 12  20 29 22.210   -03 20 23.87  .01298 1.0128 130.1 23.0
2019 09 20 13  20 29 03.711   -03 20 12.25  .01301 1.0128 130.0 23.0
2019 09 20 14  20 28 45.283   -03 20 00.67  .01303 1.0128 129.9 23.0
2019 09 20 15  20 28 26.925   -03 19 49.11  .01305 1.0127 129.8 23.0
2019 09 20 16  20 28 08.638   -03 19 37.58  .01307 1.0127 129.7 23.0
2019 09 20 17  20 27 50.421   -03 19 26.08  .01309 1.0127 129.5 23.0
2019 09 20 18  20 27 32.274   -03 19 14.60  .01312 1.0127 129.4 23.0
2019 09 20 19  20 27 14.197   -03 19 03.16  .01314 1.0127 129.3 23.0
2019 09 20 20  20 26 56.189   -03 18 51.74  .01316 1.0126 129.2 23.0
2019 09 20 21  20 26 38.250   -03 18 40.35  .01318 1.0126 129.1 23.0
2019 09 20 22  20 26 20.380   -03 18 28.99  .01321 1.0126 129.0 23.0
2019 09 20 23  20 26 02.579   -03 18 17.66  .01323 1.0126 128.9 23.0
2019 09 21 00  20 25 44.846   -03 18 06.35  .01325 1.0126 128.8 23.0
2019 09 21 01  20 25 27.181   -03 17 55.08  .01327 1.0126 128.6 23.0
2019 09 21 02  20 25 09.584   -03 17 43.83  .01330 1.0125 128.5 23.1
2019 09 21 03  20 24 52.055   -03 17 32.61  .01332 1.0125 128.4 23.1
2019 09 21 04  20 24 34.593   -03 17 21.43  .01334 1.0125 128.3 23.1
2019 09 21 05  20 24 17.198   -03 17 10.27  .01336 1.0125 128.2 23.1
2019 09 21 06  20 23 59.870   -03 16 59.14  .01339 1.0125 128.1 23.1
2019 09 21 07  20 23 42.609   -03 16 48.03  .01341 1.0125 128.0 23.1
2019 09 21 08  20 23 25.414   -03 16 36.96  .01343 1.0124 127.9 23.1
2019 09 21 09  20 23 08.285   -03 16 25.92  .01346 1.0124 127.8 23.1